Location: Lower Kingswood
(51.2667°N, 0.2167°W)
Time: 12:04:17
(UTC+00:00)

Cosmos 1805 Rocket - Pass Details

Date: 26 September 2023
Orbit: 605 x 626 km, 82.5° (Epoch: 28 November)

Event Time Altitude Azimuth Distance (km) Brightness Sun altitude
Rises 04:27:07 0° 350° (N) 2,875 7.1 -14.1°
Reaches altitude 10° 04:29:21 10° 353° (N) 1,967 6.2 -13.7°
Maximum altitude 04:33:42 73° 78° (ENE) 638 3.8 -13.1°
Drops below altitude 10° 04:38:02 10° 164° (SSE) 1,956 6.2 -12.4°
Sets 04:40:15 0° 166° (SSE) 2,858 7.0 -12.1°
